Voltar ao catálogo

FENGYUN 1C DEB

AtivoSSO
NORAD 30331·DEBRIS·🇨🇳 China

Lançado May 10, 1999 de Taiyuan Satellite Launch Center

Loading…

Próximas Passagens (próximas 24 horas)

TLE

AtualizadoSource: Space-Track

Época: Sep 14, 2026, 13:47 UTC

1 30331U 99025AAS 26257.57467948  .00000154  00000-0  13348-3 0  9999
2 30331  98.9285 290.0365 0095723 326.9841 186.9223 13.98100246999739

Acompanhe FENGYUN 1C DEB em tempo real com AllMySat

Download on the App Store